Clinton-Sherman, OK

12:52 PM CST on February 18, 2018 (GMT -0600)
Clinton-Sherman

Weather History for KCSM - July, 2012

Change the Weather History Date:

Monday, July 23, 2012

  Actual Average Record
Temperature  
Mean Temperature 90 °F -  
Max Temperature 102 °F 95 °F 105 °F (2001)
Min Temperature 79 °F 70 °F 64 °F (2003)
Cooling Degree Days 26    
Growing Degree Days 40 (Base 50)    
Moisture  
Dew Point 61 °F    
Average Humidity 41    
Maximum Humidity 60    
Minimum Humidity 21    
Precipitation  
Precipitation 0.00 in - - ()
Sea Level Pressure  
Sea Level Pressure 29.95 in    
Wind  
Wind Speed 13 mph (SSE)    
Max Wind Speed 26 mph    
Max Gust Speed 38 mph    
Visibility 10 miles    
Events      
Averages and records for this station are not official NWS values.
T = Trace of Precipitation, MM = Missing Value Source: NWS Daily Summary

Daily Weather History Graph

Daily Weather History Graph

Search for Another Location

Airport or City:

Trip Planner

Search our weather history database for the weather conditions in past years. The results will help you decide how hot, cold, wet, or windy it might be!

Date:

Astronomy

Jul. 23, 2012 Rise Set
Actual Time 6:39 AM CDT 8:46 PM CDT
Civil Twilight 6:10 AM CDT 9:15 PM CDT
Nautical Twilight 5:35 AM CDT 9:50 PM CDT
Astronomical Twilight 4:58 AM CDT 10:27 PM CDT
Moon 11:18 AM CDT (7/23) 11:17 PM CDT (7/23)
Length of Visible Light 15h 04m
Length of Day
14h 07m
Waxing Crescent, 22% of the Moon is Illuminated
Jul 23
Waxing Crescent
Jul 26
First Quarter
Aug 1
Full
Aug 9
Last Quarter
Aug 17
New

Hourly Weather History & Observations

Time (CDT) Temp. Heat Index Dew Point Humidity Pressure Visibility Wind Dir Wind Speed Gust Speed Precip Events Conditions
12:53 AM 84.9 °F 86.1 °F 64.0 °F 49% 29.98 in 10.0 mi SE 11.5 mph - N/A   Clear
1:53 AM 82.9 °F 84.6 °F 64.9 °F 54% 29.97 in 10.0 mi SE 9.2 mph - N/A   Clear
2:53 AM 82.9 °F 84.4 °F 64.0 °F 53% 29.97 in 10.0 mi SE 9.2 mph - N/A   Partly Cloudy
3:53 AM 82.0 °F 83.8 °F 64.9 °F 56% 29.97 in 10.0 mi SE 10.4 mph - N/A   Partly Cloudy
4:53 AM 81.0 °F 82.5 °F 64.0 °F 56% 29.97 in 10.0 mi SSE 10.4 mph - N/A   Clear
5:53 AM 80.1 °F 81.9 °F 64.9 °F 60% 29.98 in 10.0 mi SSE 11.5 mph - N/A   Clear
6:53 AM 79.0 °F - 64.0 °F 60% 29.99 in 10.0 mi SSE 15.0 mph - N/A   Clear
7:53 AM 81.0 °F 82.5 °F 64.0 °F 56% 30.00 in 10.0 mi SSE 12.7 mph - N/A   Clear
8:53 AM 82.9 °F 84.4 °F 64.0 °F 53% 30.00 in 10.0 mi SSE 13.8 mph - N/A   Clear
9:53 AM 87.1 °F 88.3 °F 64.0 °F 46% 29.99 in 10.0 mi South 17.3 mph - N/A   Clear
10:53 AM 90.0 °F 90.6 °F 63.0 °F 40% 29.99 in 10.0 mi SSE 17.3 mph 21.9 mph N/A   Clear
11:53 AM 93.9 °F 94.0 °F 61.0 °F 33% 29.97 in 10.0 mi SSE 18.4 mph 25.3 mph N/A   Clear
12:53 PM 97.0 °F 96.9 °F 60.1 °F 29% 29.96 in 10.0 mi South 13.8 mph 21.9 mph N/A   Clear
1:53 PM 100.0 °F 99.7 °F 57.9 °F 25% 29.94 in 10.0 mi South 17.3 mph 25.3 mph N/A   Clear
2:53 PM 100.9 °F 100.5 °F 57.9 °F 24% 29.92 in 10.0 mi South 19.6 mph 26.5 mph N/A   Clear
3:53 PM 100.9 °F 100.0 °F 57.0 °F 23% 29.91 in 10.0 mi SSW 10.4 mph 21.9 mph N/A   Partly Cloudy
4:53 PM 102.0 °F 101.1 °F 57.0 °F 22% 29.89 in 10.0 mi SSE 17.3 mph 25.3 mph N/A   Clear
5:53 PM 102.0 °F 101.1 °F 55.9 °F 22% 29.88 in 10.0 mi South 13.8 mph 19.6 mph N/A   Clear
6:53 PM 102.0 °F 100.6 °F 55.0 °F 21% 29.88 in 10.0 mi SSE 11.5 mph 17.3 mph N/A   Scattered Clouds
7:53 PM 97.0 °F 95.7 °F 57.0 °F 26% 29.89 in 10.0 mi SSE 23.0 mph 29.9 mph N/A   Clear
8:53 PM 90.0 °F 90.3 °F 62.1 °F 39% 29.91 in 10.0 mi SSE 26.5 mph 38.0 mph N/A   Clear
9:53 PM 87.1 °F 87.5 °F 62.1 °F 43% 29.95 in 10.0 mi SSE 20.7 mph 25.3 mph N/A   Clear
10:53 PM 86.0 °F 86.3 °F 62.1 °F 44% 29.96 in 10.0 mi South 13.8 mph - N/A   Clear
11:53 PM 84.0 °F 84.4 °F 61.0 °F 46% 29.96 in 10.0 mi South 16.1 mph - N/A   Clear